Zurück zum Katalog

STARLINK-34953

AktivKommunikationSSO
NORAD 65240·PAYLOAD·🇺🇸 United States

Gestartet Aug 18, 2025 von Vandenberg Space Force Base

Loading…

Nächste Überflüge (nächste 24 Stunden)

TLE

AktuellSource: CelesTrak SupGP

Epoche: Sep 14, 2026, 23:08 UTC

1 65240C 25179F   26257.96437500  .00060010  00000+0  18633-2 0  2573
2 65240  97.2831 297.3767 0001158 106.6735 310.9848 15.33401550    14

Verfolge STARLINK-34953 in Echtzeit mit AllMySat

Download on the App Store